TimeEDT,TemperatureF,Dew PointF,Humidity,Sea Level PressureIn,VisibilityMPH,Wind Direction,Wind SpeedMPH,Gust SpeedMPH,PrecipitationIn,Events,Conditions,WindDirDegrees,DateUTC
12:00 AM,69.8,68.0,94,30.31,5.0,Calm,Calm,-,N/A,,Mostly Cloudy,0,2013-07-14 04:00:00
12:15 AM,69.8,68.0,94,30.31,4.0,Calm,Calm,-,N/A,,Mostly Cloudy,0,2013-07-14 04:15:00
12:39 AM,69.8,68.0,94,30.32,5.0,Calm,Calm,-,N/A,,Mostly Cloudy,0,2013-07-14 04:39:00
1:00 AM,71.6,69.8,94,30.32,7.0,Calm,Calm,-,N/A,,Mostly Cloudy,0,2013-07-14 05:00:00
1:18 AM,71.6,69.8,94,30.31,7.0,Calm,Calm,-,N/A,,Scattered Clouds,0,2013-07-14 05:18:00
1:39 AM,71.6,69.8,94,30.31,7.0,Calm,Calm,-,N/A,,Scattered Clouds,0,2013-07-14 05:39:00
2:00 AM,71.6,69.8,94,30.31,7.0,Calm,Calm,-,N/A,,Scattered Clouds,0,2013-07-14 06:00:00
2:18 AM,71.6,69.8,94,30.31,7.0,Calm,Calm,-,N/A,,Scattered Clouds,0,2013-07-14 06:18:00
2:39 AM,69.8,68.0,94,30.31,4.0,Calm,Calm,-,N/A,,Clear,0,2013-07-14 06:39:00
3:00 AM,69.8,68.0,94,30.30,4.0,Calm,Calm,-,N/A,,Clear,0,2013-07-14 07:00:00
3:18 AM,69.8,68.0,94,30.31,5.0,Calm,Calm,-,N/A,,Scattered Clouds,0,2013-07-14 07:18:00
3:39 AM,69.8,68.0,94,30.31,4.0,Calm,Calm,-,N/A,,Mostly Cloudy,0,2013-07-14 07:39:00
4:00 AM,68.0,68.0,100,30.32,1.0,Calm,Calm,-,N/A,,Overcast,0,2013-07-14 08:00:00
4:21 AM,69.8,68.0,94,30.32,0.5,Calm,Calm,-,N/A,,Overcast,0,2013-07-14 08:21:00
4:39 AM,68.0,68.0,100,30.31,1.5,Calm,Calm,-,N/A,,Overcast,0,2013-07-14 08:39:00
5:00 AM,68.0,68.0,100,30.31,0.5,Calm,Calm,-,N/A,,Overcast,0,2013-07-14 09:00:00
5:21 AM,68.0,68.0,100,30.32,1.2,Calm,Calm,-,N/A,,Overcast,0,2013-07-14 09:21:00
5:39 AM,68.0,68.0,100,30.32,0.2,Calm,Calm,-,N/A,,Overcast,0,2013-07-14 09:39:00
6:00 AM,69.8,68.0,94,30.33,0.5,Calm,Calm,-,N/A,,Overcast,0,2013-07-14 10:00:00
6:21 AM,69.8,68.0,94,30.33,0.5,Calm,Calm,-,N/A,,Overcast,0,2013-07-14 10:21:00
6:39 AM,69.8,68.0,94,30.34,0.2,Calm,Calm,-,N/A,,Overcast,0,2013-07-14 10:39:00
7:00 AM,71.6,69.8,94,30.34,0.2,Calm,Calm,-,N/A,,Overcast,0,2013-07-14 11:00:00
7:21 AM,71.6,69.8,94,30.35,0.2,Calm,Calm,-,N/A,,Overcast,0,2013-07-14 11:21:00
7:39 AM,71.6,71.6,100,30.35,1.5,Calm,Calm,-,N/A,,Overcast,0,2013-07-14 11:39:00
8:00 AM,73.4,71.6,94,30.35,5.0,Calm,Calm,-,N/A,,Overcast,0,2013-07-14 12:00:00
8:21 AM,73.4,71.6,94,30.35,4.0,Calm,Calm,-,N/A,,Overcast,0,2013-07-14 12:21:00
8:39 AM,73.4,71.6,94,30.36,5.0,Calm,Calm,-,N/A,,Overcast,0,2013-07-14 12:39:00
9:00 AM,75.2,73.4,94,30.36,5.0,South,3.5,-,N/A,,Overcast,170,2013-07-14 13:00:00
9:21 AM,75.2,73.4,94,30.36,7.0,Calm,Calm,-,N/A,,Overcast,0,2013-07-14 13:21:00
9:39 AM,75.2,73.4,94,30.37,7.0,Calm,Calm,-,N/A,,Overcast,0,2013-07-14 13:39:00
10:00 AM,77.0,73.4,89,30.37,7.0,Calm,Calm,-,N/A,,Overcast,0,2013-07-14 14:00:00
10:21 AM,78.8,73.4,83,30.37,10.0,ESE,6.9,-,N/A,,Scattered Clouds,120,2013-07-14 14:21:00
10:39 AM,78.8,71.6,78,30.37,10.0,SSE,4.6,-,N/A,,Scattered Clouds,150,2013-07-14 14:39:00
11:00 AM,80.6,73.4,79,30.37,10.0,SSE,3.5,-,N/A,,Scattered Clouds,150,2013-07-14 15:00:00
11:21 AM,82.4,71.6,70,30.36,10.0,South,4.6,-,N/A,,Scattered Clouds,170,2013-07-14 15:21:00
11:39 AM,82.4,71.6,70,30.36,10.0,SSE,4.6,-,N/A,,Scattered Clouds,160,2013-07-14 15:39:00
12:00 PM,82.4,71.6,70,30.36,10.0,South,3.5,-,N/A,,Scattered Clouds,180,2013-07-14 16:00:00
12:21 PM,84.2,71.6,66,30.36,10.0,South,4.6,-,N/A,,Clear,180,2013-07-14 16:21:00
12:42 PM,84.2,71.6,66,30.35,10.0,Calm,Calm,-,N/A,,Mostly Cloudy,0,2013-07-14 16:42:00
1:00 PM,80.6,73.4,79,30.35,10.0,SW,3.5,-,N/A,,Mostly Cloudy,220,2013-07-14 17:00:00
1:21 PM,86.0,69.8,58,30.34,10.0,Calm,Calm,-,N/A,,Scattered Clouds,0,2013-07-14 17:21:00
1:42 PM,82.4,71.6,70,30.34,-9999.0,WSW,3.5,-,N/A,,Mostly Cloudy,250,2013-07-14 17:42:00
2:00 PM,86.0,69.8,58,30.34,-9999.0,Calm,Calm,-,N/A,,Scattered Clouds,0,2013-07-14 18:00:00
2:21 PM,86.0,71.6,62,30.33,-9999.0,SW,4.6,-,N/A,,Scattered Clouds,230,2013-07-14 18:21:00
2:42 PM,86.0,71.6,62,30.33,10.0,SE,4.6,-,N/A,,Scattered Clouds,140,2013-07-14 18:42:00
3:00 PM,86.0,71.6,62,30.32,-9999.0,SSE,5.8,-,N/A,,Scattered Clouds,150,2013-07-14 19:00:00
3:21 PM,86.0,71.6,62,30.32,-9999.0,SSE,4.6,-,N/A,,Scattered Clouds,160,2013-07-14 19:21:00
3:42 PM,86.0,71.6,62,30.32,-9999.0,SE,5.8,-,N/A,,Clear,140,2013-07-14 19:42:00
4:00 PM,84.2,71.6,66,30.31,-9999.0,SE,5.8,-,N/A,,Clear,130,2013-07-14 20:00:00
4:21 PM,86.0,71.6,62,30.31,-9999.0,SSE,5.8,-,N/A,,Scattered Clouds,160,2013-07-14 20:21:00
4:42 PM,86.0,71.6,62,30.31,-9999.0,SE,5.8,-,N/A,,Scattered Clouds,140,2013-07-14 20:42:00
5:00 PM,86.0,71.6,62,30.31,-9999.0,South,5.8,-,N/A,,Scattered Clouds,170,2013-07-14 21:00:00
5:21 PM,80.6,73.4,79,30.31,-9999.0,Calm,Calm,-,N/A,,Scattered Clouds,0,2013-07-14 21:21:00
5:42 PM,84.2,71.6,66,30.30,10.0,SSE,4.6,-,N/A,,Scattered Clouds,160,2013-07-14 21:42:00
6:00 PM,82.4,71.6,70,30.30,10.0,SSE,5.8,-,N/A,,Clear,150,2013-07-14 22:00:00
6:21 PM,84.2,71.6,66,30.30,10.0,SSE,6.9,-,N/A,,Clear,150,2013-07-14 22:21:00
6:42 PM,82.4,71.6,70,30.30,10.0,SSE,3.5,-,N/A,,Clear,150,2013-07-14 22:42:00
7:00 PM,82.4,71.6,70,30.30,10.0,SSE,5.8,-,N/A,,Clear,150,2013-07-14 23:00:00
7:21 PM,82.4,71.6,70,30.30,10.0,SSE,4.6,-,N/A,,Clear,150,2013-07-14 23:21:00
7:42 PM,80.6,71.6,74,30.30,10.0,SSE,3.5,-,N/A,,Clear,150,2013-07-14 23:42:00
8:00 PM,78.8,71.6,78,30.30,10.0,SSE,3.5,-,N/A,,Clear,160,2013-07-15 00:00:00
8:21 PM,77.0,71.6,83,30.31,10.0,SE,4.6,-,N/A,,Clear,140,2013-07-15 00:21:00
8:42 PM,75.2,71.6,89,30.31,10.0,SSE,3.5,-,N/A,,Clear,150,2013-07-15 00:42:00
9:00 PM,73.4,71.6,94,30.31,10.0,SSE,3.5,-,N/A,,Clear,150,2013-07-15 01:00:00
9:21 PM,73.4,71.6,94,30.31,10.0,Calm,Calm,-,N/A,,Clear,0,2013-07-15 01:21:00
9:42 PM,73.4,71.6,94,30.32,10.0,Calm,Calm,-,N/A,,Clear,0,2013-07-15 01:42:00
10:03 PM,73.4,69.8,88,30.32,10.0,Calm,Calm,-,N/A,,Clear,0,2013-07-15 02:03:00
10:21 PM,71.6,69.8,94,30.33,7.0,Calm,Calm,-,N/A,,Clear,0,2013-07-15 02:21:00
10:42 PM,71.6,69.8,94,30.33,7.0,Calm,Calm,-,N/A,,Clear,0,2013-07-15 02:42:00
11:03 PM,71.6,69.8,94,30.32,7.0,Calm,Calm,-,N/A,,Clear,0,2013-07-15 03:03:00
11:21 PM,71.6,69.8,94,30.32,7.0,Calm,Calm,-,N/A,,Clear,0,2013-07-15 03:21:00
11:42 PM,69.8,68.0,94,30.32,7.0,Calm,Calm,-,N/A,,Clear,0,2013-07-15 03:42:00